目前日期文章:201704 (69)

瀏覽方式: 標題列表 簡短摘要
發表時間 文章標題 人氣 留言
2017-04-30 華碩主機板 PRIME H270-PLUS【優惠】 (0) (0)
2017-04-30 魔法Baby 台灣製妖怪手錶兒童長袖半高領上衣 k44751【優惠】 (0) (0)
2017-04-30 燕聲ESY-RV6專業迴音混音機【分享】 (0) (0)
2017-04-29 三菱12X CD-RW單片盒裝 MITCDRWSWEU1P【快3】 (0) (0)
2017-04-29 大家源 鋰電池充電式電蚊拍 TCY-6126【燦坤快3】 (0) (0)
2017-04-29 艾美精品負離子象牙雕花循環風扇燈-吊扇(附飛利浦LED燈泡x8)【嚴選】 (0) (0)
2017-04-28 KINYO USB-TF隨身音響 MPS-378 MPS-378【燦坤快3】 (0) (0)
2017-04-28 Matsutek 12坪空氣清淨機 MA-AR-120N【快3網路商城】 (0) (0)
2017-04-28 Brother LC-73M洋紅色墨水匣 LC-73M【快3】 (0) (0)
2017-04-27 ATake 3.5mm立體聲公對公音源線1.5M AVC-3.5MM01【快3網路商城】 (0) (0)
2017-04-27 【福利品】ACER SA5 Ci5 256G-SSD QHD高解析平板筆電 SA5-271P-574Y【燦坤商城】 (0) (0)
2017-04-27 aibo AB20方塊甜心ATM晶片讀卡機-黑色 ICCARD-AB20-BK【快3網路商城】 (0) (0)
2017-04-26 vMix專用剪輯卡 -SC510N4 SDI【分享】 (0) (0)
2017-04-26 德國凱馳 KARCHER 洗窗機 WV 50 Plus【快3網路商城】 (0) (0)
2017-04-26 ThinkTank-Credential Holder V2.0-識別證配件袋CH976【推薦】 (0) (0)
2017-04-20 RECSUR 銳攝 RL-3205A五節鋁合金單腳架 RL-3205A+RB-700【快3】 (0) (0)
2017-04-20 TECO 電子體重計 XYFWT381【快3網路商城】 (0) (0)
2017-04-20 Power Star智能USB快速充電器-綠 H222綠【快3】 (0) (0)
2017-04-19 Avier 炫彩鋁合金線控入耳式耳機-黃黑 AEP-MM-YE【燦坤商城】 (0) (0)
2017-04-19 Blueair SENSE+活性碳片濾網 (2個1組) Sense+濾網【燦坤商城】 (0) (0)
2017-04-19 Dualux 42吋遙控變頻循環風扇 LED吊扇燈-鎳棕FN42323SN【嚴選】 (0) (0)
2017-04-18 Concern 康生 美食達人不鏽鋼快煮美食鍋【推薦】 (0) (0)
2017-04-18 Fujiei 31合1 手機工具組 JK-6005【推薦】 (0) (0)
2017-04-18 Brother TN-359M 原廠紅色高容量碳粉匣【嚴選】 (0) (0)
2017-04-13 富士電通 9吋空氣循環扇(FT-FM093)【優惠】 (0) (0)
2017-04-13 首華360度14吋循環桌立扇SKF-LN1403【嚴選】 (0) (0)
2017-04-13 飛碟全電子式3KVA七段穩壓+輸出±4%穩壓器 AVR-E3KA【大放送】 (0) (0)
2017-04-13 莊頭北 TG-6606 傳統式雙環旋烽二口瓦斯爐【分享】 (0) (0)
2017-04-13 史耐格135 Bar靜音型感應式高壓清洗機 T-1060【購物金】 (0) (0)
2017-04-08 T.C.STAR Type-c+MICRO充電線組1M-灰 TCW-UCD100GR【發燒好康】 (0) (0)
2017-04-08 WD My Book 4TB 3.5吋外接硬碟(SESN)【嚴選】 (0) (0)
2017-04-08 VS沙宣600瓦特電氣石陶瓷負離子熱風造型器VSAS80PIW【分享】 (0) (0)
2017-04-08 TP-LINK M7350 4G 進階版LTE 行動Wi-Fi分享器【選購】 (0) (0)
2017-04-08 T.C.STAR TCS4200 2.1多媒體喇叭-黑 TCS4200BK【發燒好康】 (0) (0)
2017-04-07 LEGO樂高 迪士尼公主系列 41066 冰雪奇緣 安娜和阿克的雪橇冒險【推薦】 (0) (0)
2017-04-07 Project 2013 中文標準版盒裝無光碟 PKC 076-05091【折價卷】 (0) (0)
2017-04-07 PENTAX HD DA 15mm F4 ED AL Limited 鏡頭 HD DA 15mm F4【發燒好康】 (0) (0)
2017-04-07 Lenovo E570 15吋筆電(i5-7200U-500G-8G-2G獨顯-FHD)【推薦】 (0) (0)
2017-04-07 KOLIN 歌林3人份機械式電子鍋 KNJ-MN303【推薦】 (0) (0)
2017-04-06 Cooler Master 690 III 黑化機殼【選購】 (0) (0)
2017-04-06 多功能清新文青風質感木紋收納面紙盒 1入起 - 153472_一起吃喝玩樂 GOMAJI (0) (0)
2017-04-06 台灣製遠紅外線保暖內搭衣 1入起 - 154984【分享】 (0) (0)
2017-04-06 台灣製-繽粉三層-四層-五層收納櫃 1組起 - 153688【推薦】 (0) (0)
2017-04-06 CJSCOPE HS-210 11.6吋輕薄筆電(N3160四核處理器-128G SSD)【優惠】 (0) (0)
2017-04-05 Fuji Xerox CP215w-CM215b-fw黃色碳粉 CT202133【購物金】 (0) (0)
2017-04-05 【買新鮮】蒲燒魚腹排 3包起 - 154040_一起吃喝玩樂 GOMAJI (0) (0)
2017-04-05 GoGear藍牙揚聲器 GPS2500YL(黃)【發燒好康】 (0) (0)
2017-04-05 GARMIN fenix 3 HR腕式心率戶外GPS腕錶 fenix 3 HR【大放送】 (0) (0)
2017-04-05 時尚屋 多利2尺胡桃小茶几【優惠】 (0) (0)
2017-04-04 CANON PG-740 黑色墨水 PG-740【發燒好康】 (0) (0)
1 2